Location: Newark
(52.4787°S, 179.0532°W)
Time: 16:42:35
(UTC+00:00)

ISS - Pass Details

Date: 24 October 2019
Orbit: 412 x 421 km, 51.6° (Epoch: 18 November)

Event Time Altitude Azimuth Distance (km) Brightness Sun altitude
Rises 08:39:35 0° 278° (W) 2,376 0.6 -15.0°
Reaches altitude 10° 08:41:41 10° 279° (W) 1,514 -0.4 -15.3°
Maximum altitude 08:45:05 77° 5° (N) 442 -3.8 -15.6°
Enters shadow 08:46:39 30° 87° (E) 804 -2.7 -15.8°
